Weather in Palavas-les-Flots

France     43°31′50″N   3°55′26″E
temp.,
°C
wind,
m/s
gust,
m/s
humid.,
%
clouds,
%
prec.,
mm/h
press.,
hPa
HPBL,
m
17 april, sat
sat1723:00+11n4651100 0.1 1019667
02:00+9nnw686122 0.1 1018380
05:00+8n576285 0.0 1017426
08:00+8nnw3459100 0.0 1017298
11:00+9nne4652100 0.0 10171114
14:00+11sse2343100 0.0 1016604
17:00+12sw435171 0.0 1015315
20:00+13w675591 0.0 1015310
18 april, sun
sun1823:00+12nnw235521 0.0 1017105
02:00+11n695451 0.0 1017364
05:00+9nnw576061 0.0 1017241
08:00+10nw58596 0.0 1018366
11:00+13nnw58486 0.0 10181800
14:00+14n045392 0.0 1017305
17:00+15nne2452100 0.0 1016271
20:00+14ne795665 0.0 1017387
19 april, mon
mon1923:00+12nnw710571 0.0 1019562
02:00+11nw57575 0.0 1018371
05:00+10nnw46595 0.0 1017233
08:00+9nnw33628 0.0 1017162
11:00+12nnw24495 0.0 1017781
14:00+13sw64535 0.0 1015370
17:00+13sw655821 0.0 1014362
20:00+13wsw556753 0.0 1014193
20 april, tue
tue2023:00+13se116773 0.0 101526
02:00+13nne12645 0.0 101481
05:00+11n33645 0.0 1014116
08:00+11nne336528 0.0 1014131
11:00+13ne015312 0.0 1015287
14:00+13sw64644 0.0 1014394
17:00+13sw87693 0.0 1013282
20:00+13wsw677437 0.0 1014221
21 april, wed
wed2123:00+13wsw457568 0.1 1015128
02:00+13wnw2271100 0.1 101522
05:00+13ne446882 0.0 1016131
08:00+11nne56695 0.0 1016192
11:00+14nne24625 0.0 1018240
14:00+14sw536233 0.0 1017374
17:00+14s55694 0.0 1017223
20:00+14sse45785 0.0 1017144